This is the latest recevied weather packets stored in our database for station/object DG9BJA-13. If no packets are shown the sender has not sent any weather packets the latest 10 day(s).
| Time | Temp. | Humidity | Pressure | Rain* | Wind** | Luminosity | Snow |
|---|---|---|---|---|---|---|---|
| 1777563977 | 18.89° C | 37% | 1028.4 hPa | 0 mm | - | 415 W/m² | - |
| 1777563377 | 19.44° C | 36% | 1028.6 hPa | 0 mm | - | 439 W/m² | - |
| 1777562777 | 18.89° C | 36% | 1028.7 hPa | 0 mm | - | 464 W/m² | - |
| 1777562177 | 19.44° C | 35% | 1028.7 hPa | 0 mm | - | 489 W/m² | - |
| 1777561577 | 18.89° C | 37% | 1028.7 hPa | 0 mm | - | 506 W/m² | - |
| 1777560977 | 19.44° C | 35% | 1028.8 hPa | 0 mm | - | 524 W/m² | - |
| 1777560376 | 18.89° C | 36% | 1028.8 hPa | 0 mm | - | 540 W/m² | - |
| 1777559777 | 18.89° C | 35% | 1028.9 hPa | 0 mm | - | 570 W/m² | - |
| 1777559177 | 19.44° C | 35% | 1029.2 hPa | 0 mm | - | 598 W/m² | - |
| 1777558577 | 18.89° C | 35% | 1029.2 hPa | 0 mm | - | 619 W/m² | - |
| 1777557976 | 18.89° C | 35% | 1029.3 hPa | 0 mm | - | 640 W/m² | - |
| 1777557376 | 18.33° C | 35% | 1029.3 hPa | 0 mm | - | 656 W/m² | - |
| 1777556776 | 18.33° C | 35% | 1029.3 hPa | 0 mm | - | 673 W/m² | - |
| 1777556176 | 18.33° C | 34% | 1029.4 hPa | 0 mm | - | 687 W/m² | - |
| 1777555576 | 18.33° C | 35% | 1029.6 hPa | 0 mm | - | 700 W/m² | - |
| 1777554976 | 18.89° C | 35% | 1029.6 hPa | 0 mm | - | 714 W/m² | - |
| 1777554376 | 18.33° C | 34% | 1029.7 hPa | 0 mm | - | 731 W/m² | - |
| 1777553776 | 18.33° C | 34% | 1029.9 hPa | 0 mm | - | 740 W/m² | - |
| 1777553176 | 17.78° C | 35% | 1029.9 hPa | 0 mm | - | 754 W/m² | - |
| 1777552576 | 17.78° C | 35% | 1030.2 hPa | 0 mm | - | 761 W/m² | - |
| 1777551976 | 17.78° C | 35% | 1030.3 hPa | 0 mm | - | 773 W/m² | - |
| 1777551376 | 17.22° C | 35% | 1030.3 hPa | 0 mm | - | 784 W/m² | - |
| 1777550776 | 17.22° C | 34% | 1030.5 hPa | 0 mm | - | 795 W/m² | - |
| 1777550176 | 17.22° C | 34% | 1030.8 hPa | 0 mm | - | 800 W/m² | - |
| 1777549576 | 17.22° C | 34% | 1030.8 hPa | 0 mm | - | 800 W/m² | - |
* Rain latest hour (hover to see other rain measurements)
** Current wind speed in m/s (hover to see current wind gust speed)